User: anonymous   Login
Location: Poprad
(49.0500°N, 20.3000°E)
Time: 22:24:40
(UTC+01:00)
Language:

Hubble Space Telescope - Orbit

View from above orbital plane
View from above orbital plane
View from above satellite
View from above satellite

Ground track
Ground track

The orbit data is extracted from the following two-line orbital elements,

1 20580U 90037B   24058.52348985  .00006313  00000-0  30923-3 0  9990
2 20580  28.4699   5.6221 0002587 269.7477  90.2818 15.16106990660474
Epoch (UTC): 27 February 2024 12:33:49
Eccentricity: 0.0002587
inclination: 28.4699°
perigee height: 516 km
apogee height: 519 km
right ascension of ascending node: 5.6221°
argument of perigee: 269.7477°
revolutions per day: 15.16106990
mean anomaly at epoch: 90.2818°
orbit number at epoch: 66047

The dashed part of the orbit path shows where the satellite is in the earth's shadow,  

DLR